WB5LJO-13 Weather Reports


time (UTC)temp
F
wind
direction
speed
knots
gust
knots
rain 1hr
in
rain 24hr
in
rain mn
in
humidity
%
barometer
mb
20260510204318 91 83 3.5 0.0 0.44 0.00 0.00 9
20260510203818 91 68 2.6 0.0 0.44 0.00 0.00 9
20260510203317 91 131 5.2 0.0 0.44 0.00 0.00 9
20260510202817 91 187 7.0 0.0 0.44 0.00 0.00 10
20260510202317 91 73 3.5 0.0 0.44 0.00 0.00 9
20260510201818 91 159 2.6 0.0 0.44 0.00 0.00 9
20260510201318 91 226 6.1 0.0 0.44 0.00 0.00 10
20260510200817 91 131 2.6 0.0 0.44 0.00 0.00 9
20260510200317 83 139 4.3 0.0 0.44 0.00 0.00 10
20260510195817 83 156 4.3 0.0 0.44 0.00 0.00 10
20260510195317 84 173 8.7 0.0 0.44 0.00 0.00 10
20260510194818 84 142 2.6 0.0 0.44 0.00 0.00 10
20260510194317 82 89 4.3 0.0 0.44 0.00 0.00 12
20260510193818 81 158 4.3 0.0 0.44 0.00 0.00 12
20260510193317 82 184 4.3 0.0 0.44 0.00 0.00 11
20260510192818 80 103 2.6 0.0 0.44 0.00 0.00 11
20260510192317 85 75 2.6 0.0 0.44 0.00 0.00 11
20260510191817 87 183 8.7 0.0 0.44 0.00 0.00 11
20260510191318 88 113 2.6 0.0 0.44 0.00 0.00 9
20260510190817 88 135 0.0 0.0 0.44 0.00 0.00 10
20260510190318 88 252 7.0 0.0 0.44 0.00 0.00 9
20260510185817 88 197 0.0 0.0 0.44 0.00 0.00 8
20260510185318 88 114 4.3 0.0 0.44 0.00 0.00 9
20260510184818 87 65 4.3 0.0 0.44 0.00 0.00 9
20260510184317 87 134 2.6 0.0 0.44 0.00 0.00 9
20260510183817 87 127 7.8 0.0 0.44 0.00 0.00 10
20260510183317 87 84 0.0 0.0 0.44 0.00 0.00 10
20260510182818 86 18 0.0 0.0 0.44 0.00 0.00 10
20260510182317 86 118 0.0 0.0 0.44 0.00 0.00 11
20260510181818 85 37 0.0 0.0 0.44 0.00 0.00 11
20260510181318 84 65 2.6 0.0 0.44 0.00 0.00 12
20260510180818 84 45 2.6 0.0 0.44 0.00 0.00 12
20260510180317 84 17 4.3 0.0 0.44 0.00 0.00 12
20260510175818 84 46 8.7 0.0 0.44 0.00 0.00 12
20260510175318 84 30 6.1 0.0 0.44 0.00 0.00 12
20260510174818 84 13 7.0 0.0 0.44 0.00 0.00 12
20260510174318 85 38 8.7 0.0 0.44 0.00 0.00 12
20260510173818 84 31 7.8 0.0 0.44 0.00 0.00 12
20260510173317 85 24 7.0 0.0 0.44 0.00 0.00 12
20260510172817 85 38 2.6 0.0 0.44 0.00 0.00 11
20260510172318 85 10 8.7 0.0 0.44 0.00 0.00 11
20260510171818 85 14 5.2 0.0 0.44 0.00 0.00 12
20260510171317 85 15 12.2 0.0 0.44 0.00 0.00 11
20260510170818 84 357 8.7 0.0 0.44 0.00 0.00 12
20260510170318 84 14 7.0 0.0 0.44 0.00 0.00 13
20260510165817 84 30 8.7 0.0 0.44 0.00 0.00 10
20260510165317 83 4 5.2 0.0 0.44 0.00 0.00 13
20260510164817 84 27 12.2 0.0 0.44 0.00 0.00 13
20260510164317 83 10 7.0 0.0 0.44 0.00 0.00 11
20260510163817 83 55 9.6 0.0 0.44 0.00 0.00 11
20260510163318 82 25 11.3 0.0 0.44 0.00 0.00 11
20260510162817 82 18 8.7 0.0 0.44 0.00 0.00 12
20260510162317 82 359 7.8 0.0 0.44 0.00 0.00 11
20260510161818 83 314 5.2 0.0 0.44 0.00 0.00 12
20260510161318 82 336 4.3 0.0 0.44 0.00 0.00 12
20260510160817 82 28 6.1 0.0 0.44 0.00 0.00 14
20260510160318 82 28 10.4 0.0 0.44 0.00 0.00 14
20260510155817 82 31 7.0 0.0 0.44 0.00 0.00 13
20260510155317 82 24 7.8 0.0 0.44 0.00 0.00 13
20260510154818 82 45 8.7 0.0 0.44 0.00 0.00 15
20260510154317 81 14 7.0 0.0 0.44 0.00 0.00 14
20260510153818 81 1 7.8 0.0 0.44 0.00 0.00 15
20260510153317 80 357 8.7 0.0 0.44 0.00 0.00 14
20260510152818 80 60 6.1 0.0 0.44 0.00 0.00 14
20260510152318 80 1 14.8 0.0 0.44 0.00 0.00 14
20260510151818 80 3 10.4 0.0 0.44 0.00 0.00 14
20260510151318 80 18 13.0 0.0 0.44 0.00 0.00 14
20260510150817 80 23 11.3 0.0 0.44 0.00 0.00 14
20260510150318 80 18 15.6 0.0 0.44 0.00 0.00 14
20260510145817 80 356 11.3 0.0 0.44 0.00 0.00 13
20260510145318 79 14 7.8 0.0 0.44 0.00 0.00 14
20260510144817 79 10 13.9 0.0 0.44 0.00 0.00 14
20260510144318 79 46 7.8 0.0 0.44 0.00 0.00 14
20260510143817 78 359 3.5 0.0 0.44 0.00 0.00 14
20260510142817 78 30 4.3 0.0 0.44 0.00 0.00 14
20260510142318 78 13 10.4 0.0 0.44 0.00 0.00 14
20260510141818 78 37 7.8 0.0 0.44 0.00 0.00 14
20260510141318 77 8 7.8 0.0 0.44 0.00 0.00 15
20260510140818 77 23 5.2 0.0 0.44 0.00 0.00 15
20260510140318 77 359 7.8 0.0 0.44 0.00 0.00 15
20260510135817 77 345 5.2 0.0 0.44 0.00 0.00 15
20260510135318 77 359 6.1 0.0 0.44 0.00 0.00 15
20260510134818 77 8 3.5 0.0 0.44 0.00 0.00 15
20260510134318 76 359 3.5 0.0 0.44 0.00 0.00 16
20260510133818 76 14 0.0 0.0 0.44 0.00 0.00 16
20260510133318 76 34 3.5 0.0 0.44 0.00 0.00 17
20260510132817 76 38 0.0 0.0 0.44 0.00 0.00 17
20260510132319 76 38 0.0 0.0 0.44 0.00 0.00 17
20260510131818 76 38 0.0 0.0 0.44 0.00 0.00 17
20260510131318 76 38 0.0 0.0 0.44 0.00 0.00 16
20260510130818 76 38 0.0 0.0 0.44 0.00 0.00 15
20260510130319 76 38 0.0 0.0 0.44 0.00 0.00 16
20260510125818 76 46 2.6 0.0 0.44 0.00 0.00 15
20260510125318 77 30 3.5 0.0 0.44 0.00 0.00 15
20260510124819 77 52 7.0 0.0 0.44 0.00 0.00 15
20260510124318 77 51 7.0 0.0 0.44 0.00 0.00 15
20260510123818 77 31 4.3 0.0 0.44 0.00 0.00 15
20260510123319 76 359 7.8 0.0 0.44 0.00 0.00 15
20260510122818 76 15 4.3 0.0 0.44 0.00 0.00 15
20260510122318 77 11 5.2 0.0 0.44 0.00 0.00 15
20260510121818 77 25 4.3 0.0 0.44 0.00 0.00 15
20260510121318 77 359 2.6 0.0 0.44 0.00 0.00 14
20260510120818 77 359 2.6 0.0 0.44 0.00 0.00 14
20260510115818 77 17 5.2 0.0 0.44 0.00 0.00 14
20260510115318 78 38 5.2 0.0 0.44 0.00 0.00 14
20260510114818 78 359 4.3 0.0 0.44 0.00 0.00 13
20260510114318 79 25 4.3 0.0 0.44 0.00 0.00 13
20260510113817 79 350 7.0 0.0 0.44 0.00 0.00 13
20260510113318 79 52 5.2 0.0 0.44 0.00 0.00 12
20260510112817 80 20 5.2 0.0 0.44 0.00 0.00 12
20260510112318 80 352 10.4 0.0 0.44 0.00 0.00 12
20260510111818 80 1 8.7 0.0 0.44 0.00 0.00 12
20260510111318 80 10 3.5 0.0 0.44 0.00 0.00 12
20260510110318 80 314 0.0 0.0 0.44 0.00 0.00 11
20260510105818 80 308 7.8 0.0 0.44 0.00 0.00 11
20260510105318 80 25 4.3 0.0 0.44 0.00 0.00 11
20260510104818 80 304 7.0 0.0 0.44 0.00 0.00 11
20260510104318 80 359 6.1 0.0 0.44 0.00 0.00 11
20260510103818 80 326 7.8 0.0 0.44 0.00 0.00 11
20260510103318 81 339 10.4 0.0 0.44 0.00 0.00 11
20260510102818 81 305 5.2 0.0 0.44 0.00 0.00 10
20260510102318 81 304 6.1 0.0 0.44 0.00 0.00 10
20260510101818 81 8 6.1 0.0 0.44 0.00 0.00 10
20260510101317 81 346 11.3 0.0 0.44 0.00 0.00 10
20260510100817 80 21 6.1 0.0 0.44 0.00 0.00 10
20260510100318 80 287 6.1 0.0 0.44 0.00 0.00 10
20260510095818 80 322 5.2 0.0 0.44 0.00 0.00 10
20260510095318 80 284 7.8 0.0 0.44 0.00 0.00 10
20260510094818 80 307 6.1 0.0 0.44 0.00 0.00 10
20260510094318 81 352 5.2 0.0 0.44 0.00 0.00 10
20260510093817 81 8 2.6 0.0 0.44 0.00 0.00 10
20260510093318 80 302 4.3 0.0 0.44 0.00 0.00 11
20260510092817 80 285 5.2 0.0 0.44 0.00 0.00 10
20260510092317 80 316 5.2 0.0 0.44 0.00 0.00 10
20260510091818 80 288 6.1 0.0 0.44 0.00 0.00 10
20260510091317 80 359 5.2 0.0 0.44 0.00 0.00 10
20260510090817 80 350 5.2 0.0 0.44 0.00 0.00 10
20260510090318 80 295 7.8 0.0 0.44 0.00 0.00 10
20260510085817 80 346 5.2 0.0 0.44 0.00 0.00 10
20260510085317 81 240 4.3 0.0 0.44 0.00 0.00 10
20260510084818 80 321 16.5 0.0 0.44 0.00 0.00 10
20260510084317 81 283 11.3 0.0 0.44 0.00 0.00 10
20260510083817 80 285 9.6 0.0 0.44 0.00 0.00 10
20260510083318 81 309 7.8 0.0 0.44 0.00 0.00 10
20260510082818 80 345 5.2 0.0 0.44 0.00 0.00 10
20260510082317 80 321 7.0 0.0 0.44 0.00 0.00 10
20260510081817 80 321 10.4 0.0 0.44 0.00 0.00 10
20260510081317 80 298 7.0 0.0 0.44 0.00 0.00 10
20260510080817 80 333 7.0 0.0 0.44 0.00 0.00 10
20260510080318 80 347 5.2 0.0 0.44 0.00 0.00 10
20260510075817 80 326 7.8 0.0 0.44 0.00 0.00 10
20260510075318 80 291 11.3 0.0 0.44 0.00 0.00 10
20260510074817 80 301 4.3 0.0 0.44 0.00 0.00 10
20260510074317 80 302 5.2 0.0 0.44 0.00 0.00 9
20260510073817 81 338 4.3 0.0 0.44 0.00 0.00 9
20260510073317 81 288 0.0 0.0 0.44 0.00 0.00 8
20260510072817 81 323 6.1 0.0 0.44 0.00 0.00 9
20260510072317 81 298 5.2 0.0 0.44 0.00 0.00 9
20260510071817 80 359 2.6 0.0 0.44 0.00 0.00 9
20260510071317 80 309 4.3 0.0 0.44 0.00 0.00 10
20260510070817 80 259 2.6 0.0 0.44 0.00 0.00 9
20260510065817 81 266 5.2 0.0 0.44 0.00 0.00 9
20260510065318 81 302 2.6 0.0 0.44 0.00 0.00 9
20260510064817 81 311 4.3 0.0 0.44 0.00 0.00 9
20260510064317 81 229 3.5 0.0 0.44 0.00 0.00 9
20260510063817 81 314 4.3 0.0 0.44 0.00 0.00 9
20260510063318 81 252 6.1 0.0 0.44 0.00 0.00 9
20260510062817 81 273 2.6 0.0 0.44 0.00 0.00 8
20260510062317 82 325 4.3 0.0 0.44 0.00 0.00 8
20260510061817 82 298 3.5 0.0 0.44 0.00 0.00 8
20260510061317 82 293 5.2 0.0 0.44 0.00 0.00 8
20260510060817 82 326 2.6 0.0 0.44 0.00 0.00 8
20260510060318 82 295 4.3 0.0 0.44 0.00 0.00 8
20260510055817 82 290 0.0 0.0 0.44 0.00 0.00 8
20260510055317 82 318 5.2 0.0 0.44 0.00 0.00 8
20260510054817 82 260 4.3 0.0 0.44 0.00 0.00 8
20260510054317 82 297 0.0 0.0 0.44 0.00 0.00 8
20260510053817 83 294 0.0 0.0 0.44 0.00 0.00 8
20260510053317 83 285 4.3 0.0 0.44 0.00 0.00 7
20260510052817 83 267 5.2 0.0 0.44 0.00 0.00 7
20260510052317 82 1 5.2 0.0 0.44 0.00 0.00 8
20260510051818 82 330 4.3 0.0 0.44 0.00 0.00 8
20260510051317 82 297 4.3 0.0 0.44 0.00 0.00 8
20260510050818 83 293 2.6 0.0 0.44 0.00 0.00 7
20260510050317 83 309 2.6 0.0 0.44 0.00 0.00 7
20260510045817 83 314 5.2 0.0 0.44 0.00 0.00 7
20260510045317 83 326 3.5 0.0 0.44 0.00 0.00 7
20260510044818 83 294 2.6 0.0 0.44 0.00 0.00 7
20260510044317 83 342 6.1 0.0 0.44 0.00 0.00 7
20260510043817 84 248 3.5 0.0 0.44 0.00 0.00 7
20260510043318 84 301 5.2 0.0 0.44 0.00 0.00 7
20260510042817 84 242 7.0 0.0 0.44 0.00 0.00 7
20260510042318 83 256 4.3 0.0 0.44 0.00 0.00 7
20260510041818 83 287 4.3 0.0 0.44 0.00 0.00 7
20260510041317 84 328 2.6 0.0 0.44 0.00 0.00 7
20260510040818 84 269 2.6 0.0 0.44 0.00 0.00 7
20260510040317 84 238 5.2 0.0 0.44 0.00 0.00 7
20260510035817 84 288 3.5 0.0 0.44 0.00 0.00 7
20260510035317 84 304 4.3 0.0 0.44 0.00 0.00 7
20260510034818 85 345 5.2 0.0 0.44 0.00 0.00 7
20260510034318 85 350 4.3 0.0 0.44 0.00 0.00 7
20260510033818 85 295 10.4 0.0 0.44 0.00 0.00 7
20260510033317 85 283 4.3 0.0 0.44 0.00 0.00 7
20260510032818 85 281 4.3 0.0 0.44 0.00 0.00 7
20260510032317 86 291 6.1 0.0 0.44 0.00 0.00 7
20260510031817 86 283 0.0 0.0 0.44 0.00 0.00 7
20260510031318 86 302 6.1 0.0 0.44 0.00 0.00 7
20260510030817 86 342 4.3 0.0 0.44 0.00 0.00 7
20260510030317 86 218 4.3 0.0 0.44 0.00 0.00 7
20260510025817 86 291 4.3 0.0 0.44 0.00 0.00 7
20260510025317 86 276 5.2 0.0 0.44 0.00 0.00 7
20260510024817 86 273 0.0 0.0 0.44 0.00 0.00 7
20260510024318 86 308 2.6 0.0 0.44 0.00 0.00 7
20260510023817 86 221 5.2 0.0 0.44 0.00 0.00 7
20260510023317 86 217 8.7 0.0 0.44 0.00 0.00 7
20260510022817 86 226 0.0 0.0 0.44 0.00 0.00 7
20260510022318 87 226 0.0 0.0 0.44 0.00 0.00 8
20260510021817 87 226 0.0 0.0 0.44 0.00 0.00 7
20260510021317 87 159 0.0 0.0 0.44 0.00 0.00 7
20260510020817 87 256 0.0 0.0 0.44 0.00 0.00 7
20260510020317 87 203 0.0 0.0 0.44 0.00 0.00 7
20260510015817 87 204 6.1 0.0 0.44 0.00 0.00 7
20260510015318 87 173 0.0 0.0 0.44 0.00 0.00 7
20260510014818 87 173 0.0 0.0 0.44 0.00 0.00 7
20260510014318 88 173 0.0 0.0 0.44 0.00 0.00 7
20260510013817 88 210 2.6 0.0 0.44 0.00 0.00 7
20260510013318 89 276 0.0 0.0 0.44 0.00 0.00 7
20260510012817 89 276 0.0 0.0 0.44 0.00 0.00 7
20260510012317 89 308 0.0 0.0 0.44 0.00 0.00 7
20260510011817 90 217 0.0 0.0 0.44 0.00 0.00 7
20260510011317 90 201 0.0 0.0 0.44 0.00 0.00 6
20260510010817 90 316 0.0 0.0 0.44 0.00 0.00 6
20260510010318 89 276 7.0 0.0 0.44 0.00 0.00 6
20260510005818 89 191 5.2 0.0 0.44 0.00 0.00 6
20260510005317 89 231 8.7 0.0 0.44 0.00 0.00 6
20260510004818 90 181 6.1 0.0 0.44 0.00 0.00 6
20260510004317 90 285 0.0 0.0 0.44 0.00 0.00 6
20260510003817 90 170 5.2 0.0 0.44 0.00 0.00 6
20260510003317 90 229 4.3 0.0 0.44 0.00 0.00 6
20260510002817 91 270 2.6 0.0 0.44 0.00 0.00 6
20260510002317 91 226 11.3 0.0 0.44 0.00 0.00 6
20260510001817 91 233 4.3 0.0 0.44 0.00 0.00 6
20260510001317 92 170 2.6 0.0 0.44 0.00 0.00 6
20260510000817 92 14 9.6 0.0 0.44 0.00 0.00 6
20260510000319 92 307 0.0 0.0 0.44 0.00 0.00 6
20260509235817 92 215 4.3 0.0 0.44 0.00 0.00 6
20260509235317 92 226 4.3 0.0 0.44 0.00 0.00 6
20260509234818 92 225 4.3 0.0 0.44 0.00 0.00 6
20260509234318 93 25 4.3 0.0 0.44 0.00 0.00 6
20260509233817 93 307 7.8 0.0 0.44 0.00 0.00 1
20260509233318 93 210 8.7 0.0 0.44 0.00 0.00 6
20260509232818 93 100 1.7 0.0 0.44 0.00 0.00 6
20260509232318 92 283 4.3 0.0 0.44 0.00 0.00 6
20260509231818 92 273 2.6 0.0 0.44 0.00 0.00 6
20260509231317 92 336 5.2 0.0 0.44 0.00 0.00 6
20260509230817 93 345 4.3 0.0 0.44 0.00 0.00 6
20260509230317 92 329 5.2 0.0 0.44 0.00 0.00 6
20260509225818 92 3 4.3 0.0 0.44 0.00 0.00 6
20260509225318 92 8 2.6 0.0 0.44 0.00 0.00 6
20260509224817 86 359 4.3 0.0 0.44 0.00 0.00 6
20260509224318 87 276 6.1 0.0 0.44 0.00 0.00 6
20260509223817 86 156 0.9 0.0 0.44 0.00 0.00 6
20260509223317 89 210 0.0 0.0 0.44 0.00 0.00 6
20260509222818 89 311 0.0 0.0 0.44 0.00 0.00 6
20260509222317 90 309 4.3 0.0 0.44 0.00 0.00 6
20260509221818 90 302 0.0 0.0 0.44 0.00 0.00 6
20260509221317 90 188 0.0 0.0 0.44 0.00 0.00 6
20260509220817 89 129 0.0 0.0 0.44 0.00 0.00 6
20260509220317 89 278 0.0 0.0 0.44 0.00 0.00 6
20260509215817 89 197 6.1 0.0 0.44 0.00 0.00 6
20260509215317 89 198 9.6 0.0 0.44 0.00 0.00 6
20260509214817 89 7 6.1 0.0 0.44 0.00 0.00 6
20260509214317 89 311 2.6 0.0 0.44 0.00 0.00 6
20260509213817 89 8 1.7 0.0 0.44 0.00 0.00 6
20260509213318 89 236 5.2 0.0 0.44 0.00 0.00 6
20260509212817 89 191 7.0 0.0 0.44 0.00 0.00 6
20260509212317 89 15 1.7 0.0 0.44 0.00 0.00 6
20260509211817 88 217 6.1 0.0 0.44 0.00 0.00 6
20260509211317 88 25 3.5 0.0 0.44 0.00 0.00 6
20260509210817 88 257 0.0 0.0 0.44 0.00 0.00 6
20260509210318 88 204 6.1 0.0 0.44 0.00 0.00 6
20260509205818 89 229 4.3 0.0 0.44 0.00 0.00 6
20260509205318 89 224 6.1 0.0 0.44 0.00 0.00 6
20260509204817 89 295 4.3 0.0 0.44 0.00 0.00 6